Flag for U.S.A. Weather past 2 weeks in Urbana, Illinois, U.S.A.

Now
9 °F

Overcast.


Feels Like: -3 °F
Forecast: 2 / 24 °F
Wind: 8 mph from East

Location: University Of Illinois-Willard Airport

Current Time: Feb 28, 2015 at 6:49:57 AM

Latest Report: Feb 28, 2015 at 5:53 AM


Visibility: 10 mi

Pressure: 30.73 "Hg

Humidity: 70%

Dew point: 1 °F

Location of UrbanaLocation

Historic Weather in Urbana — Graph

°F

Urbana temperature yesterday

Maximum temperature yesterday: 13 °F (at 2:53 PM)
Minimum temperature yesterday: -6 °F (at 4:53 AM)
Average temperature yesterday: 4 °F

Past Weeks' High & Low Weather Summary

 TemperatureHumidityPressure
High31 °F (Feb 21, 1:53 PM)92% (Feb 21, 6:53 AM)30.77 "Hg (Feb 21, 6:53 AM)
Low-12 °F (Feb 24, 2:53 AM)36% (Feb 14, 2:53 PM)29.88 "Hg (Feb 24, 2:53 PM)
Average14 °F67%30.25 "Hg
* Reported Feb 13 5:53 AM — Feb 28 5:53 AM, Urbana, Weather by CustomWeather, © 2015

Note: Actual official high and low records may vary slightly from our data, if they occured in-between our weather recording intervals... More about our weather records

Advertising

Urbana weather history for previous 24 hours

 ConditionsComfort  
Time TempWeatherWind HumidityBarometerVisibility
5:53 AM
Sat, Feb 28
9 °FOvercast.8 mph70%30.73 "Hg10 mi
4:53 AM8 °FOvercast.6 mph69%30.71 "Hg10 mi
3:53 AM7 °FOvercast.8 mph70%30.70 "Hg10 mi
2:53 AM6 °FPassing clouds.7 mph73%30.70 "Hg10 mi
1:53 AM4 °FPassing clouds.7 mph73%30.71 "Hg10 mi
12:53 AM5 °FClear.6 mph72%30.71 "Hg10 mi
11:53 PM
Fri, Feb 27
7 °FPassing clouds.6 mph66%30.71 "Hg10 mi
10:53 PM5 °FClear.5 mph69%30.72 "Hg10 mi
9:53 PM4 °FClear.3 mph69%30.73 "Hg10 mi
8:53 PM4 °FClear.5 mph69%30.72 "Hg10 mi
7:53 PM7 °FClear.No wind63%30.70 "Hg10 mi
6:53 PM4 °FClear.3 mph73%30.71 "Hg10 mi
5:53 PM5 °FClear.6 mph72%30.70 "Hg10 mi
4:53 PM10 °FSunny.7 mph64%30.68 "Hg10 mi
3:53 PM13 °FSunny.7 mph59%30.67 "Hg10 mi
2:53 PM13 °FSunny.7 mph59%30.67 "Hg10 mi
1:53 PM12 °FSunny.6 mph61%30.67 "Hg10 mi
12:53 PM10 °FSunny.6 mph69%30.68 "Hg10 mi
11:53 AM9 °FSunny.6 mph66%30.69 "Hg10 mi
10:53 AM6 °FSunny.7 mph69%30.69 "Hg10 mi
9:53 AM2 °FSunny.7 mph76%30.69 "Hg10 mi
8:53 AM-2 °FSunny.5 mph78%30.67 "Hg10 mi
7:53 AM-6 °FSunny.6 mph87%30.64 "Hg10 mi
6:53 AM-6 °FSunny.7 mphN/A30.62 "Hg10 mi
Weather by CustomWeather, © 2015

See weather overviewHow to use our weather pages